Regional Weather Roundup
Issued by NWS

Home | Current Version | Previous Version | Graphics & Text | Print | Product List | Glossary On
Versions: 1 2 3 4 5 6 7 8 9 10 11 12 13 14 15 16 17 18 19 20 21 22 23 24 25 26 27 28 29 30 31 32 33 34 35 36 37 38 39 40 41 42 43 44 45 46 47 48 49 50
000
ASUS43 KBIS 201410
RWRND

NORTH DAKOTA REGIONAL WEATHER ROUNDUP
NATIONAL WEATHER SERVICE BISMARCK ND
900 AM CDT WED AUG 20 2014

NOTE: "FAIR" INDICATES FEW OR NO CLOUDS BELOW 12,000 FEET WITH NO
SIGNIFICANT WEATHER AND/OR OBSTRUCTIONS TO VISIBILITY.


NDZ001>003-009>011-017-201500-
NORTHWEST NORTH DAKOTA

CITY           SKY/WX    TMP DP  RH WIND       PRES   REMARKS
WILLISTON      LGT RAIN  68  64  87 SW3       29.65R
MINOT          SUNNY     69  62  78 SE12      29.65F
MINOT AFB      MOSUNNY   68  67  94 SE13      29.65F
$$

NDZ018>021-031>035-040>046-201500-
SOUTHWEST NORTH DAKOTA

CITY           SKY/WX    TMP DP  RH WIND       PRES   REMARKS
BISMARCK       PTSUNNY   69  64  84 SE12      29.72S
DICKINSON      CLOUDY    70  62  76 S9        29.67S
GARRISON         N/A     68  64  87 SE6       29.69S
HETTINGER ARPT CLOUDY    70  62  76 SE9       29.71S
$$

NDZ004>008-012>016-024-026-027-054-201500-
NORTHEAST NORTH DAKOTA

CITY           SKY/WX    TMP DP  RH WIND       PRES   REMARKS
GRAND FORKS    MOSUNNY   69  64  84 SE8       29.78S
GRND FRKS AFB  MOSUNNY   68  67  99 S8        29.79S
DEVILS LAKE    MOSUNNY   72  63  73 SE13      29.74S
$$

NDZ022-023-025-028>030-036>039-047>053-201500-
SOUTHEAST NORTH DAKOTA

CITY           SKY/WX    TMP DP  RH WIND       PRES   REMARKS
FARGO          SUNNY     72  63  73 SE8       29.79S
JAMESTOWN      SUNNY     70  64  81 SE7       29.76S
$$




USA.gov is the U.S. government's official web portal to all federal, state and local government web resources and services.